TimeEDT,TemperatureF,Dew PointF,Humidity,Sea Level PressureIn,VisibilityMPH,Wind Direction,Wind SpeedMPH,Gust SpeedMPH,PrecipitationIn,Events,Conditions,WindDirDegrees,DateUTC
12:53 AM,30.0,19.0,64,29.99,10.0,Variable,4.6,-,N/A,,Clear,0,2013-03-24 04:53:00
1:53 AM,28.0,19.0,69,30.00,10.0,Variable,3.5,-,N/A,,Clear,0,2013-03-24 05:53:00
2:53 AM,28.0,19.0,69,29.99,10.0,ENE,4.6,-,N/A,,Clear,60,2013-03-24 06:53:00
3:53 AM,27.0,19.0,72,29.97,10.0,NE,4.6,-,N/A,,Clear,50,2013-03-24 07:53:00
4:53 AM,27.0,19.9,75,29.98,10.0,NE,4.6,-,N/A,,Clear,50,2013-03-24 08:53:00
5:53 AM,26.1,19.0,75,29.96,10.0,NNE,4.6,-,N/A,,Clear,30,2013-03-24 09:53:00
6:53 AM,27.0,19.9,75,29.97,10.0,NE,4.6,-,N/A,,Clear,50,2013-03-24 10:53:00
7:53 AM,27.0,19.9,75,29.96,10.0,NE,3.5,-,N/A,,Clear,50,2013-03-24 11:53:00
8:53 AM,28.0,21.0,75,29.93,10.0,NNE,6.9,-,N/A,,Clear,20,2013-03-24 12:53:00
9:53 AM,30.0,21.0,69,29.92,10.0,NE,5.8,-,N/A,,Clear,50,2013-03-24 13:53:00
10:53 AM,33.1,21.9,64,29.85,10.0,Variable,5.8,-,N/A,,Clear,0,2013-03-24 14:53:00
11:53 AM,35.1,19.9,54,29.81,10.0,NE,6.9,-,N/A,,Clear,40,2013-03-24 15:53:00
12:53 PM,37.0,19.9,50,29.76,10.0,ENE,9.2,-,N/A,,Clear,70,2013-03-24 16:53:00
1:53 PM,37.9,19.9,48,29.74,10.0,NE,10.4,-,N/A,,Clear,50,2013-03-24 17:53:00
2:53 PM,43.0,21.0,42,29.71,10.0,Variable,6.9,-,N/A,,Clear,0,2013-03-24 18:53:00
3:53 PM,41.0,19.9,43,29.69,10.0,East,8.1,-,N/A,,Clear,80,2013-03-24 19:53:00
4:53 PM,42.1,19.9,41,29.66,10.0,East,11.5,-,N/A,,Scattered Clouds,90,2013-03-24 20:53:00
5:53 PM,39.9,19.9,45,29.64,10.0,East,11.5,-,N/A,,Overcast,90,2013-03-24 21:53:00
6:53 PM,39.0,21.0,49,29.62,10.0,SE,15.0,21.9,N/A,,Overcast,130,2013-03-24 22:53:00
7:51 PM,33.8,28.4,81,29.57,2.5,ESE,11.5,23.0,0.00,Snow,Light Snow,120,2013-03-24 23:51:00
7:53 PM,34.0,28.0,79,29.62,0.8,ESE,11.5,21.9,0.00,Snow,Light Snow,110,2013-03-24 23:53:00
8:46 PM,32.0,30.2,93,29.57,0.8,East,11.5,19.6,0.00,Snow,Light Snow,100,2013-03-25 00:46:00
8:53 PM,32.0,30.0,92,29.62,4.0,East,11.5,-,0.00,Snow,Light Snow,100,2013-03-25 00:53:00
9:53 PM,32.0,28.9,88,29.59,2.0,East,11.5,-,0.00,Snow,Light Snow,80,2013-03-25 01:53:00
10:20 PM,32.0,30.2,93,29.53,3.0,East,9.2,18.4,0.00,Snow,Light Snow,90,2013-03-25 02:20:00
10:53 PM,32.0,28.9,88,29.56,10.0,East,13.8,-,0.00,,Overcast,90,2013-03-25 02:53:00
11:53 PM,32.0,28.0,85,29.55,3.0,East,12.7,-,0.00,Snow,Light Snow,90,2013-03-25 03:53:00